When you browse on this site, cookies collect data to enhance your experience and personalize the content and advertising you see.
Visit our Privacy Policy to learn more. By continuing to use the site, you agree to this use of cookies and data.
  • In Hungary
  • List of Countries
  • For 7 days
  • Water Temperature
  • Satellite Maps
  • Weather Map
  • News
  • Weather Widgets
  • user-avatar
    Login

    Hourly Weather Huánuco

    Today, 17 November, Saturday

    Time Temperature Precipitation Wind Pressure Humidity
    00:00 +19°C° 0.5 mm 1 mps 595 mmHg 90%
    01:00 +17°C° 0.5 mm 0 mps 595 mmHg 90%
    02:00 +18°C° 0.5 mm 1 mps 595 mmHg 90%
    03:00 +18°C° 0.5 mm 1 mps 595 mmHg 89%
    04:00 +18°C° 0.5 mm 1 mps 595 mmHg 89%
    05:00 +19°C° 0.4 mm 1 mps 595 mmHg 85%
    06:00 +17°C° 0.4 mm 0 mps 596 mmHg 82%
    07:00 +18°C° 0.4 mm 0 mps 596 mmHg 78%
    08:00 +22°C° 0.3 mm 1 mps 597 mmHg 73%
    09:00 +23°C° 0.3 mm 2 mps 598 mmHg 67%
    10:00 +25°C° 0.3 mm 3 mps 599 mmHg 62%
    11:00 +26°C° 0.6 mm 3 mps 598 mmHg 61%
    12:00 +26°C° 0.6 mm 3 mps 598 mmHg 61%
    13:00 +27°C° 0.6 mm 3 mps 597 mmHg 60%
    14:00 +26°C° 0.8 mm 3 mps 596 mmHg 63%
    15:00 +25°C° 0.8 mm 3 mps 596 mmHg 66%
    16:00 +25°C° 0.8 mm 3 mps 595 mmHg 68%
    17:00 +23°C° 1.5 mm 2 mps 595 mmHg 75%
    18:00 +22°C° 1.5 mm 1 mps 595 mmHg 82%
    19:00 +20°C° 1.5 mm 1 mps 595 mmHg 89%
    20:00 +20°C° 0.9 mm 1 mps 595 mmHg 90%
    21:00 +20°C° 0.9 mm 1 mps 596 mmHg 91%
    22:00 +18°C° 0.9 mm 0 mps 596 mmHg 91%
    23:00 +20°C° 0.6 mm 1 mps 596 mmHg 91%

    Tomorrow, 18 November, Sunday

    Time Temperature Precipitation Wind Pressure Humidity
    00:00 +19°C° 0.6 mm 1 mps 595 mmHg 91%
    01:00 +19°C° 0.6 mm 1 mps 595 mmHg 90%
    02:00 +19°C° 0.4 mm 1 mps 595 mmHg 90%
    03:00 +17°C° 0.4 mm 0 mps 595 mmHg 90%
    04:00 +17°C° 0.4 mm 0 mps 594 mmHg 89%
    05:00 +17°C° 0.3 mm 0 mps 595 mmHg 87%
    06:00 +18°C° 0.3 mm 0 mps 596 mmHg 84%
    07:00 +18°C° 0.3 mm 0 mps 596 mmHg 82%
    08:00 +22°C° 0.4 mm 1 mps 597 mmHg 76%
    09:00 +23°C° 0.4 mm 2 mps 597 mmHg 70%
    10:00 +24°C° 0.4 mm 2 mps 598 mmHg 64%
    11:00 +25°C° 0.4 mm 3 mps 598 mmHg 62%
    12:00 +26°C° 0.4 mm 3 mps 597 mmHg 60%
    13:00 +26°C° 0.4 mm 3 mps 597 mmHg 58%
    14:00 +26°C° 0.5 mm 3 mps 596 mmHg 61%
    15:00 +25°C° 0.5 mm 3 mps 596 mmHg 64%
    16:00 +25°C° 0.5 mm 3 mps 595 mmHg 67%
    17:00 +23°C° 0.9 mm 2 mps 595 mmHg 74%
    18:00 +21°C° 0.9 mm 2 mps 595 mmHg 80%
    19:00 +20°C° 0.9 mm 1 mps 595 mmHg 87%
    20:00 +20°C° 0.7 mm 1 mps 595 mmHg 88%
    21:00 +20°C° 0.7 mm 1 mps 596 mmHg 89%
    22:00 +18°C° 0.7 mm 0 mps 596 mmHg 89%
    23:00 +17°C° 0.9 mm 0 mps 596 mmHg 89%

    Day after tomorrow, 19 November, Monday

    Time Temperature Precipitation Wind Pressure Humidity
    00:00 +17°C° 0.9 mm 0 mps 596 mmHg 89%
    01:00 +19°C° 0.9 mm 1 mps 595 mmHg 89%
    02:00 +19°C° 0.8 mm 1 mps 595 mmHg 89%
    03:00 +19°C° 0.8 mm 1 mps 594 mmHg 88%
    04:00 +19°C° 0.8 mm 1 mps 594 mmHg 88%
    05:00 +17°C° 0.9 mm 0 mps 595 mmHg 86%
    06:00 +18°C° 0.9 mm 0 mps 595 mmHg 84%
    07:00 +18°C° 0.9 mm 0 mps 596 mmHg 81%
    08:00 +21°C° 1 mm 1 mps 596 mmHg 78%
    09:00 +22°C° 1 mm 1 mps 597 mmHg 74%
    10:00 +21°C° 1 mm 2 mps 597 mmHg 70%
    11:00 +23°C° 1.1 mm 2 mps 597 mmHg 69%
    12:00 +24°C° 1.1 mm 2 mps 597 mmHg 68%
    13:00 +24°C° 1.1 mm 3 mps 596 mmHg 67%
    14:00 +23°C° 1.4 mm 2 mps 596 mmHg 70%
    15:00 +23°C° 1.4 mm 2 mps 595 mmHg 73%
    16:00 +21°C° 1.4 mm 2 mps 594 mmHg 76%
    17:00 +21°C° 2.2 mm 1 mps 594 mmHg 80%
    18:00 +20°C° 2.2 mm 1 mps 595 mmHg 84%
    19:00 +19°C° 2.2 mm 1 mps 595 mmHg 88%
    20:00 +19°C° 2 mm 1 mps 595 mmHg 88%
    21:00 +19°C° 2 mm 1 mps 596 mmHg 89%
    22:00 +19°C° 2 mm 1 mps 596 mmHg 89%
    23:00 +19°C° 1.1 mm 1 mps 596 mmHg 89%

    20 November, Tuesday

    Time Temperature Precipitation Wind Pressure Humidity
    00:00 +19°C° 1.1 mm 1 mps 596 mmHg 89%
    01:00 +19°C° 1.1 mm 1 mps 595 mmHg 89%
    02:00 +18°C° 0.8 mm 1 mps 595 mmHg 88%
    03:00 +16°C° 0.8 mm 0 mps 595 mmHg 88%
    04:00 +16°C° 0.8 mm 0 mps 594 mmHg 88%
    05:00 +16°C° 0.6 mm 0 mps 595 mmHg 86%
    06:00 +17°C° 0.6 mm 0 mps 596 mmHg 84%
    07:00 +19°C° 0.6 mm 1 mps 596 mmHg 82%
    08:00 +20°C° 0.6 mm 1 mps 597 mmHg 78%
    09:00 +22°C° 0.6 mm 1 mps 597 mmHg 73%
    10:00 +23°C° 0.6 mm 2 mps 598 mmHg 69%
    11:00 +23°C° 0.6 mm 2 mps 597 mmHg 69%
    12:00 +23°C° 0.6 mm 2 mps 597 mmHg 68%
    13:00 +24°C° 0.6 mm 3 mps 596 mmHg 68%
    14:00 +24°C° 0.7 mm 2 mps 596 mmHg 69%
    15:00 +23°C° 0.7 mm 2 mps 595 mmHg 71%
    16:00 +23°C° 0.7 mm 2 mps 595 mmHg 73%
    17:00 +21°C° 0.8 mm 2 mps 595 mmHg 78%
    18:00 +21°C° 0.8 mm 1 mps 595 mmHg 83%
    19:00 +20°C° 0.8 mm 1 mps 596 mmHg 88%
    20:00 +20°C° 1 mm 1 mps 596 mmHg 88%
    21:00 +19°C° 1 mm 1 mps 596 mmHg 89%
    22:00 +19°C° 1 mm 1 mps 597 mmHg 90%
    23:00 +19°C° 1 mm 1 mps 596 mmHg 89%

    21 November, Wednesday

    Time Temperature Precipitation Wind Pressure Humidity
    00:00 +19°C° 1 mm 1 mps 596 mmHg 89%
    01:00 +17°C° 1 mm 0 mps 595 mmHg 89%
    02:00 +18°C° 0.7 mm 1 mps 595 mmHg 88%
    03:00 +18°C° 0.7 mm 1 mps 595 mmHg 88%
    04:00 +18°C° 0.7 mm 1 mps 595 mmHg 88%
    05:00 +19°C° 0.5 mm 1 mps 595 mmHg 85%
    06:00 +17°C° 0.5 mm 0 mps 596 mmHg 82%
    07:00 +18°C° 0.5 mm 0 mps 597 mmHg 79%
    08:00 +21°C° 0.5 mm 1 mps 597 mmHg 75%
    09:00 +21°C° 0.5 mm 2 mps 598 mmHg 72%
    10:00 +24°C° 0.5 mm 2 mps 598 mmHg 68%
    11:00 +24°C° 0.9 mm 3 mps 598 mmHg 67%
    12:00 +25°C° 0.9 mm 3 mps 597 mmHg 65%
    13:00 +26°C° 0.9 mm 3 mps 597 mmHg 64%
    14:00 +25°C° 0.9 mm 3 mps 596 mmHg 67%
    15:00 +24°C° 0.9 mm 3 mps 595 mmHg 70%
    16:00 +23°C° 0.9 mm 2 mps 595 mmHg 74%
    17:00 +21°C° 1.7 mm 2 mps 595 mmHg 79%
    18:00 +21°C° 1.7 mm 1 mps 595 mmHg 85%
    19:00 +20°C° 1.7 mm 1 mps 595 mmHg 91%
    20:00 +20°C° 2.4 mm 1 mps 596 mmHg 90%
    21:00 +18°C° 2.4 mm 0 mps 596 mmHg 90%
    22:00 +17°C° 2.4 mm 0 mps 596 mmHg 90%
    23:00 +17°C° 2 mm 0 mps 596 mmHg 89%

    22 November, Thursday

    Time Temperature Precipitation Wind Pressure Humidity
    00:00 +19°C° 2 mm 1 mps 595 mmHg 89%
    01:00 +19°C° 2 mm 1 mps 595 mmHg 88%
    02:00 +18°C° 1.6 mm 1 mps 595 mmHg 87%
    03:00 +18°C° 1.6 mm 1 mps 595 mmHg 87%
    04:00 +18°C° 1.6 mm 1 mps 594 mmHg 86%
    05:00 +18°C° 1.2 mm 1 mps 595 mmHg 83%
    06:00 +19°C° 1.2 mm 1 mps 595 mmHg 80%
    07:00 +19°C° 1.2 mm 1 mps 596 mmHg 77%
    08:00 +20°C° 0.7 mm 1 mps 596 mmHg 71%
    09:00 +22°C° 0.7 mm 1 mps 597 mmHg 65%
    10:00 +23°C° 0.7 mm 1 mps 597 mmHg 59%
    11:00 +23°C° 0.3 mm 2 mps 597 mmHg 59%
    12:00 +24°C° 0.3 mm 2 mps 596 mmHg 58%
    13:00 +25°C° 0.3 mm 3 mps 596 mmHg 58%
    14:00 +25°C° 0.1 mm 2 mps 595 mmHg 61%
    15:00 +25°C° 0.1 mm 2 mps 595 mmHg 63%
    16:00 +24°C° 0.1 mm 2 mps 594 mmHg 66%
    17:00 +23°C° 0.1 mm 2 mps 594 mmHg 72%
    18:00 +22°C° 0.1 mm 1 mps 594 mmHg 77%
    19:00 +20°C° 0.1 mm 1 mps 594 mmHg 83%
    20:00 +20°C° 0.4 mm 1 mps 595 mmHg 81%
    21:00 +20°C° 0.4 mm 1 mps 595 mmHg 79%
    22:00 +19°C° 0.4 mm 1 mps 595 mmHg 78%
    23:00 +19°C° 0.3 mm 1 mps 595 mmHg 75%
    Show more